FW9665 Weather Reports


Display with metric or nautical units.
time (UTC)temp
F
wind
direction
speed
MPH
gust
MPH
rain 1hr
in
rain 24hr
in
rain mn
in
humidity
%
barometer
mb
20260508023516 54 0.0 1.0 0.00 0.06 0.00 78 1009.8
20260508023016 54 0.0 1.0 0.00 0.06 0.00 78 1009.9
20260508022516 54 0.0 1.0 0.00 0.06 0.00 78 1009.8
20260508022036 54 0.0 2.0 0.00 0.06 0.00 78 1009.9
20260508021516 54 0.0 2.0 0.00 0.06 0.00 78 1010.0
20260508021036 54 0.0 0.0 0.00 0.06 0.00 77 1010.0
20260508020516 54 0.0 0.0 0.00 0.06 0.00 77 1010.0
20260508020016 54 0.0 0.0 0.00 0.06 0.00 77 1010.1
20260508015516 54 0.0 0.0 0.00 0.06 0.00 77 1010.1
20260508015036 54 0.0 0.0 0.00 0.06 0.00 77 1010.1
20260508014516 54 0.0 0.0 0.00 0.06 0.00 77 1010.2
20260508014036 54 0.0 0.0 0.00 0.06 0.00 77 1010.2
20260508013516 54 0.0 0.0 0.00 0.06 0.00 77 1010.3
20260508013016 54 0.0 0.0 0.00 0.06 0.00 77 1010.1
20260508012516 54 0.0 0.0 0.00 0.06 0.00 77 1010.1
20260508012016 54 0.0 0.0 0.00 0.06 0.00 77 1010.1
20260508011516 54 0.0 0.0 0.00 0.06 0.00 76 1010.3
20260508011016 54 0.0 1.0 0.00 0.06 0.00 76 1010.2
20260508010516 55 0.0 0.0 0.00 0.06 0.00 77 1010.3
20260508010056 55 0.0 0.0 0.00 0.06 0.00 77 1010.3
20260508005516 55 0.0 0.0 0.00 0.06 0.00 77 1010.5
20260508005016 55 0.0 0.0 0.00 0.06 0.00 77 1010.5
20260508004516 55 0.0 0.0 0.00 0.06 0.00 76 1010.5
20260508004015 55 0.0 0.0 0.00 0.06 0.00 76 1010.5
20260508003516 55 0.0 2.0 0.00 0.06 0.00 76 1010.5
20260508003016 55 0.0 0.0 0.00 0.06 0.00 76 1010.6
20260508002516 55 0.0 0.0 0.00 0.06 0.00 76 1010.6
20260508002035 55 0.0 0.0 0.00 0.06 0.00 76 1010.7
20260508001515 55 0.0 0.0 0.00 0.06 0.00 75 1010.7
20260508001036 55 0.0 0.0 0.00 0.06 0.00 75 1010.7
20260508000516 55 0.0 0.0 0.00 0.06 0.00 75 1010.7
20260508000016 55 0.0 0.0 0.00 0.06 0.00 75 1010.7
20260507235516 56 0.0 0.0 0.00 0.06 0.00 75 1010.8
20260507235055 56 0.0 0.0 0.00 0.06 0.00 75 1010.9
20260507234515 56 0.0 0.0 0.00 0.06 0.00 75 1011.0
20260507234036 56 0.0 1.0 0.00 0.06 0.00 75 1011.0
20260507233516 56 0.0 0.0 0.00 0.06 0.00 75 1011.1
20260507233015 56 0.0 0.0 0.00 0.06 0.00 75 1011.2
20260507232515 56 0.0 1.0 0.00 0.06 0.00 75 1011.3
20260507232016 56 0.0 1.0 0.00 0.06 0.00 75 1011.3
20260507231515 56 0.0 0.0 0.00 0.06 0.00 75 1011.4
20260507231015 56 0.0 1.0 0.00 0.06 0.00 75 1011.4
20260507230516 56 0.0 1.0 0.00 0.06 0.00 76 1011.5
20260507230015 56 0.0 2.0 0.00 0.06 0.00 76 1011.6
20260507225515 57 0.0 1.0 0.00 0.06 0.00 76 1011.5
20260507225016 57 0.0 1.0 0.00 0.06 0.00 76 1011.6
20260507224515 57 0.0 1.0 0.00 0.06 0.00 76 1011.7
20260507224015 57 0.0 0.0 0.00 0.06 0.00 76 1011.9
20260507223516 57 0.0 0.0 0.00 0.06 0.00 77 1011.9
20260507223015 57 0.0 1.0 0.00 0.06 0.00 77 1011.7
20260507222536 57 0.0 0.0 0.00 0.06 0.00 76 1011.7
20260507222015 57 0.0 1.0 0.00 0.06 0.00 76 1011.7
20260507221516 57 0.0 1.0 0.00 0.06 0.00 76 1011.7
20260507221016 58 0.0 1.0 0.00 0.06 0.00 76 1011.7
20260507220535 58 0.0 2.0 0.00 0.06 0.00 76 1011.7
20260507220035 58 0.0 0.0 0.00 0.06 0.06 76 1011.7
20260507215516 58 0.0 0.0 0.00 0.06 0.06 75 1011.7
20260507215016 58 0.0 0.0 0.00 0.06 0.06 75 1011.7
20260507214516 58 0.0 0.0 0.00 0.06 0.06 75 1011.7
20260507214016 58 0.0 0.0 0.00 0.06 0.06 75 1011.6
20260507213516 58 0.0 0.0 0.00 0.06 0.06 75 1011.6
20260507213036 58 0.0 0.0 0.00 0.06 0.06 76 1011.6
20260507212516 58 0.0 0.0 0.00 0.06 0.06 76 1011.5
20260507212016 58 0.0 0.0 0.00 0.06 0.06 76 1011.5
20260507211516 58 0.0 0.0 0.00 0.06 0.06 76 1011.5
20260507211016 58 0.0 0.0 0.00 0.06 0.06 76 1011.4
20260507210516 58 315 1.0 2.0 0.00 0.06 0.06 76 1011.4
20260507210016 58 315 2.0 4.0 0.00 0.06 0.06 77 1011.3
20260507205516 58 315 3.0 5.0 0.00 0.06 0.06 77 1011.3
20260507205036 58 315 3.0 4.0 0.00 0.06 0.06 77 1011.4
20260507204516 58 338 2.0 3.0 0.00 0.06 0.06 77 1011.4
20260507204016 58 338 1.0 2.0 0.00 0.06 0.06 76 1011.4
20260507203516 58 0.0 3.0 0.00 0.06 0.06 77 1011.4
20260507203016 58 315 1.0 3.0 0.00 0.06 0.06 77 1011.2
20260507202516 58 0.0 1.0 0.00 0.06 0.06 77 1011.2
20260507202036 58 338 1.0 3.0 0.00 0.06 0.06 77 1011.1
20260507201516 58 338 2.0 4.0 0.00 0.06 0.06 77 1011.1
20260507201036 58 338 3.0 5.0 0.00 0.06 0.06 77 1011.1
20260507200516 59 338 3.0 4.0 0.00 0.06 0.06 76 1011.2
20260507200016 59 338 3.0 4.0 0.00 0.06 0.06 76 1011.2
20260507195536 59 338 4.0 6.0 0.00 0.06 0.06 76 1011.2
20260507195016 59 338 3.0 6.0 0.00 0.06 0.06 76 1011.3
20260507194516 59 338 5.0 8.0 0.00 0.06 0.06 76 1011.2
20260507194016 59 338 6.0 9.0 0.00 0.06 0.06 76 1011.2
20260507193516 59 338 5.0 8.0 0.00 0.06 0.06 76 1011.2
20260507193016 59 338 5.0 9.0 0.00 0.06 0.06 76 1011.1
20260507192515 59 338 6.0 9.0 0.00 0.06 0.06 75 1011.0
20260507192015 59 338 7.0 10.0 0.00 0.06 0.06 75 1011.0
20260507191516 60 338 7.0 9.0 0.00 0.06 0.06 75 1011.0
20260507191036 60 338 6.0 9.0 0.00 0.06 0.06 75 1010.9
20260507190516 60 338 6.0 9.0 0.00 0.06 0.06 75 1010.9
20260507190016 60 338 6.0 8.0 0.00 0.06 0.06 75 1010.7
20260507185516 60 338 6.0 9.0 0.00 0.06 0.06 75 1010.6
20260507185015 60 338 7.0 9.0 0.00 0.06 0.06 75 1010.6
20260507184536 60 338 6.0 10.0 0.00 0.06 0.06 75 1010.7
20260507184015 61 338 5.0 8.0 0.00 0.06 0.06 74 1010.8
20260507183516 61 338 4.0 6.0 0.00 0.06 0.06 72 1010.8
20260507183015 62 338 3.0 5.0 0.00 0.06 0.06 71 1010.7
20260507182515 62 338 3.0 4.0 0.00 0.06 0.06 69 1010.7
20260507182016 63 338 4.0 5.0 0.00 0.06 0.06 68 1010.9
20260507181516 63 338 3.0 5.0 0.00 0.06 0.06 67 1010.9
20260507181015 64 338 4.0 6.0 0.00 0.06 0.06 66 1010.9
20260507180535 64 338 4.0 6.0 0.00 0.06 0.06 65 1010.9
20260507180016 65 338 3.0 5.0 0.00 0.06 0.06 63 1011.1
20260507175516 66 338 2.0 4.0 0.00 0.06 0.06 61 1011.0
20260507175015 67 338 2.0 4.0 0.00 0.06 0.06 60 1011.0
20260507174515 67 0 2.0 4.0 0.00 0.06 0.06 59 1011.0
20260507174016 68 338 2.0 5.0 0.00 0.06 0.06 57 1011.0
20260507173515 69 0 1.0 3.0 0.00 0.06 0.06 55 1011.0
20260507173036 69 0 1.0 3.0 0.00 0.06 0.06 54 1011.0
20260507172516 70 0 2.0 3.0 0.00 0.06 0.06 54 1011.0
20260507172015 70 90 1.0 2.0 0.00 0.06 0.06 52 1011.0
20260507171536 70 0.0 2.0 0.00 0.06 0.06 52 1011.0
20260507171016 70 0.0 1.0 0.00 0.06 0.06 51 1011.1
20260507170515 70 0.0 1.0 0.00 0.06 0.06 52 1011.0
20260507170015 70 158 1.0 1.0 0.00 0.06 0.06 53 1011.0
20260507165535 70 158 1.0 2.0 0.00 0.06 0.06 51 1011.0
20260507165035 70 158 1.0 3.0 0.00 0.06 0.06 51 1011.0
20260507164515 71 158 1.0 4.0 0.00 0.06 0.06 51 1011.0
20260507164035 71 158 1.0 4.0 0.00 0.06 0.06 51 1011.0
20260507163516 71 158 1.0 4.0 0.00 0.06 0.06 52 1010.9
20260507163035 71 158 1.0 4.0 0.00 0.06 0.06 51 1010.9
20260507162515 71 158 2.0 5.0 0.00 0.06 0.06 50 1010.9
20260507162015 72 180 1.0 3.0 0.00 0.06 0.06 51 1011.0
20260507161515 72 158 1.0 4.0 0.00 0.06 0.06 50 1011.0
20260507161015 73 158 1.0 4.0 0.00 0.06 0.06 50 1011.1
20260507160515 73 315 1.0 3.0 0.00 0.06 0.06 50 1011.1
20260507160017 73 180 1.0 3.0 0.00 0.06 0.06 50 1011.2
20260507155537 73 158 1.0 3.0 0.00 0.06 0.06 51 1011.2
20260507155018 73 158 1.0 3.0 0.00 0.06 0.06 51 1011.2
20260507154516 72 158 1.0 2.0 0.00 0.06 0.06 52 1011.2
20260507154017 72 158 1.0 2.0 0.00 0.06 0.06 51 1011.1
20260507153517 72 45 1.0 2.0 0.00 0.06 0.06 49 1011.1
20260507153018 71 45 2.0 4.0 0.00 0.06 0.06 48 1011.2
20260507152517 71 0 2.0 5.0 0.00 0.06 0.06 51 1011.3
20260507152035 71 338 2.0 5.0 0.00 0.06 0.06 49 1011.3
20260507151517 71 0 2.0 5.0 0.00 0.06 0.06 50 1011.3
20260507151017 71 45 2.0 4.0 0.00 0.06 0.06 51 1011.3
20260507150517 71 113 2.0 4.0 0.00 0.06 0.06 52 1011.3
20260507150015 71 113 3.0 8.0 0.00 0.06 0.06 56 1011.4
20260507145517 70 315 1.0 4.0 0.00 0.06 0.06 56 1011.4
20260507145017 70 315 3.0 5.0 0.00 0.06 0.06 58 1011.4
20260507144517 70 315 4.0 8.0 0.00 0.06 0.06 57 1011.4
20260507144035 70 315 1.0 5.0 0.00 0.06 0.06 59 1011.5
20260507143537 69 0 1.0 5.0 0.00 0.06 0.06 58 1011.5
20260507143017 69 315 3.0 5.0 0.00 0.06 0.06 57 1011.5
20260507142517 69 315 3.0 4.0 0.00 0.06 0.06 54 1011.6
20260507142017 70 338 2.0 4.0 0.00 0.06 0.06 52 1011.7
20260507141537 71 338 2.0 5.0 0.00 0.06 0.06 52 1011.8
20260507141037 72 338 3.0 5.0 0.00 0.06 0.06 48 1012.0
20260507140537 72 0.0 2.0 0.00 0.06 0.06 51 1012.0
20260507140017 71 45 1.0 4.0 0.00 0.06 0.06 48 1012.0
20260507135517 71 0 1.0 3.0 0.00 0.06 0.06 50 1012.0
20260507135017 71 338 1.0 4.0 0.00 0.06 0.06 52 1012.2
20260507134517 71 45 1.0 4.0 0.00 0.06 0.06 51 1012.2
20260507134017 71 315 1.0 4.0 0.00 0.06 0.06 54 1012.3
20260507133517 70 90 1.0 3.0 0.00 0.06 0.06 54 1012.4
20260507133017 70 315 1.0 2.0 0.00 0.06 0.06 56 1012.4
20260507132517 69 0.0 3.0 0.00 0.06 0.06 57 1012.3
20260507132017 69 0.0 1.0 0.00 0.06 0.06 57 1012.3
20260507131517 68 113 1.0 3.0 0.00 0.06 0.06 57 1012.4
20260507131017 68 113 2.0 4.0 0.00 0.06 0.06 56 1012.5
20260507130517 67 90 2.0 4.0 0.00 0.06 0.06 56 1012.3
20260507130017 67 338 2.0 4.0 0.00 0.06 0.06 56 1012.4
20260507125517 68 338 1.0 4.0 0.00 0.06 0.06 56 1012.5
20260507125017 67 113 1.0 4.0 0.00 0.06 0.06 55 1012.6
20260507124517 67 45 2.0 5.0 0.00 0.06 0.06 57 1012.5
20260507124017 67 68 2.0 8.0 0.00 0.06 0.06 58 1012.5
20260507123517 67 338 3.0 8.0 0.00 0.06 0.06 58 1012.4
20260507123015 67 338 4.0 8.0 0.00 0.06 0.06 57 1012.5
20260507122537 67 338 3.0 5.0 0.00 0.06 0.06 59 1012.5
20260507122017 67 338 3.0 8.0 0.00 0.06 0.06 61 1012.5
20260507121517 67 338 3.0 5.0 0.00 0.06 0.06 58 1012.5
20260507121017 67 45 2.0 5.0 0.00 0.06 0.06 56 1012.5
20260507120517 67 338 3.0 9.0 0.00 0.06 0.06 60 1012.5
20260507120037 67 45 1.0 6.0 0.00 0.06 0.06 61 1012.6
20260507115517 67 113 2.0 6.0 0.00 0.06 0.06 60 1012.5
20260507115037 66 113 1.0 4.0 0.00 0.06 0.06 64 1012.6
20260507114537 66 315 3.0 8.0 0.00 0.06 0.06 63 1012.6
20260507114017 66 338 2.0 5.0 0.00 0.06 0.06 63 1012.7
20260507113517 66 45 2.0 5.0 0.00 0.06 0.06 63 1012.6
20260507113017 66 113 2.0 6.0 0.00 0.06 0.06 63 1012.7
20260507112517 66 90 1.0 3.0 0.00 0.06 0.06 63 1012.7
20260507112017 66 113 1.0 4.0 0.00 0.06 0.06 66 1012.8
20260507111557 65 113 2.0 3.0 0.00 0.06 0.06 64 1012.6
20260507111017 65 90 1.0 4.0 0.00 0.06 0.06 64 1012.6
20260507110517 66 113 2.0 7.0 0.00 0.06 0.06 63 1012.8
20260507110017 66 113 2.0 7.0 0.00 0.06 0.06 64 1012.7
20260507105537 67 135 3.0 7.0 0.00 0.06 0.06 63 1012.8
20260507105017 67 113 3.0 7.0 0.00 0.06 0.06 66 1012.9
20260507104517 67 135 1.0 5.0 0.00 0.06 0.06 66 1012.8
20260507104017 67 135 2.0 3.0 0.00 0.06 0.06 64 1012.9
20260507103517 67 158 1.0 3.0 0.00 0.06 0.06 67 1012.9
20260507103017 67 158 1.0 4.0 0.00 0.06 0.06 66 1013.0
20260507102517 67 113 1.0 3.0 0.00 0.06 0.06 67 1013.0
20260507102017 66 180 1.0 3.0 0.00 0.06 0.06 68 1012.9
20260507101517 66 135 1.0 4.0 0.00 0.06 0.06 70 1013.1
20260507101017 65 0.0 2.0 0.00 0.06 0.06 68 1013.1
20260507100516 64 0.0 1.0 0.00 0.06 0.06 68 1013.1
20260507100037 65 158 1.0 4.0 0.00 0.06 0.06 69 1013.1
20260507095517 65 135 1.0 3.0 0.00 0.06 0.06 69 1013.0
20260507095017 65 158 2.0 5.0 0.00 0.06 0.06 70 1012.9
20260507094517 64 158 3.0 8.0 0.00 0.06 0.06 69 1012.9
20260507094037 64 113 2.0 6.0 0.00 0.06 0.06 72 1012.9
20260507093516 64 135 1.0 4.0 0.00 0.06 0.06 70 1012.9
20260507093037 64 113 1.0 3.0 0.00 0.06 0.06 71 1013.0
20260507092516 64 113 1.0 4.0 0.00 0.06 0.06 72 1013.0
20260507092016 63 158 1.0 3.0 0.00 0.06 0.06 73 1013.0
20260507091517 63 113 1.0 2.0 0.00 0.06 0.06 74 1012.8
20260507091016 62 158 1.0 2.0 0.00 0.06 0.06 74 1012.7
20260507090536 62 158 2.0 4.0 0.00 0.06 0.06 74 1012.7
20260507090017 62 158 3.0 6.0 0.00 0.06 0.06 75 1012.7
20260507085517 62 113 1.0 4.0 0.00 0.06 0.06 77 1012.7
20260507085016 61 0.0 2.0 0.00 0.06 0.06 77 1012.8
20260507084517 61 158 1.0 3.0 0.00 0.06 0.06 78 1012.8
20260507084017 60 0.0 2.0 0.00 0.06 0.06 80 1012.7
20260507083536 60 90 1.0 3.0 0.00 0.06 0.06 80 1012.7
20260507083016 60 158 1.0 3.0 0.00 0.06 0.06 82 1012.8
20260507082517 59 158 1.0 3.0 0.00 0.06 0.06 83 1012.6
20260507082057 59 158 1.0 4.0 0.00 0.06 0.06 84 1012.6
20260507081516 58 135 2.0 3.0 0.00 0.06 0.06 83 1012.6
20260507081016 57 113 2.0 6.0 0.00 0.06 0.06 84 1012.5
20260507080517 57 113 2.0 4.0 0.00 0.06 0.06 84 1012.5
20260507080016 57 135 2.0 5.0 0.00 0.06 0.06 86 1012.5
20260507075516 57 113 1.0 6.0 0.00 0.06 0.06 87 1012.6
20260507075017 57 113 1.0 3.0 0.00 0.06 0.06 88 1012.7
20260507074536 56 113 1.0 3.0 0.00 0.06 0.06 88 1012.6
20260507074036 55 0.0 2.0 0.00 0.06 0.06 86 1012.4
20260507073517 56 0.0 0.0 0.00 0.06 0.06 87 1012.5
20260507073016 56 0.0 1.0 0.00 0.06 0.06 87 1012.5
20260507072517 56 0.0 1.0 0.00 0.06 0.06 88 1012.6
20260507072016 56 0.0 0.0 0.00 0.06 0.06 88 1012.5
20260507071517 56 0.0 1.0 0.00 0.06 0.06 88 1012.5
20260507071017 56 0.0 1.0 0.01 0.06 0.06 88 1012.4
20260507070516 55 0.0 0.0 0.01 0.06 0.06 88 1012.3
20260507070016 55 0.0 0.0 0.01 0.06 0.06 88 1012.2
20260507065516 55 0.0 0.0 0.01 0.06 0.06 88 1012.2
20260507065016 54 0.0 0.0 0.01 0.06 0.06 88 1012.2
20260507064516 54 0.0 0.0 0.01 0.06 0.06 88 1012.2
20260507064016 54 0.0 0.0 0.01 0.06 0.06 88 1012.2
20260507063516 54 0.0 0.0 0.01 0.06 0.06 88 1012.1
20260507063016 54 0.0 0.0 0.01 0.06 0.06 88 1012.0
20260507062536 53 0.0 0.0 0.01 0.06 0.06 88 1012.1
20260507062016 53 0.0 0.0 0.01 0.06 0.06 88 1012.0
20260507061517 53 0.0 0.0 0.02 0.06 0.06 88 1012.0
20260507061016 52 0.0 0.0 0.01 0.05 0.05 88 1012.0
20260507060536 52 0.0 0.0 0.03 0.05 0.05 87 1011.9
20260507060016 52 0.0 0.0 0.03 0.05 0.05 87 1011.9
20260507055536 51 0.0 0.0 0.04 0.05 0.05 87 1012.0
20260507055016 51 0.0 2.0 0.04 0.05 0.05 87 1011.9
20260507054536 51 0.0 2.0 0.05 0.05 0.05 86 1012.0
20260507054016 51 0.0 0.0 0.05 0.05 0.05 86 1011.9
20260507053516 51 0.0 0.0 0.05 0.05 0.05 86 1011.9
20260507053016 51 0.0 0.0 0.05 0.06 0.05 86 1011.9
20260507052516 51 315 1.0 2.0 0.05 0.06 0.05 86 1011.9
20260507052016 51 0.0 0.0 0.05 0.06 0.05 85 1011.8
20260507051517 51 0.0 0.0 0.04 0.05 0.04 85 1011.8
20260507051036 51 0.0 0.0 0.04 0.05 0.04 85 1011.8
20260507050516 51 0.0 1.0 0.02 0.03 0.02 85 1011.7
20260507050016 52 0.0 1.0 0.02 0.03 0.02 85 1011.6
20260507045516 52 0.0 0.0 0.01 0.02 0.01 85 1011.7
20260507045016 52 0.0 0.0 0.01 0.02 0.01 85 1011.7
20260507044536 52 0.0 0.0 0.00 0.01 0.00 85 1011.5
20260507044036 52 0.0 0.0 0.00 0.01 0.00 85 1011.5
20260507043516 52 0.0 0.0 0.00 0.01 0.00 85 1011.5
20260507043036 52 0.0 0.0 0.00 0.01 0.00 85 1011.5
20260507042516 52 0.0 1.0 0.00 0.01 0.00 85 1011.5
20260507042036 52 0.0 0.0 0.00 0.01 0.00 85 1011.5
20260507041516 52 0.0 0.0 0.00 0.01 0.00 85 1011.4
20260507041036 52 0.0 0.0 0.00 0.01 0.00 85 1011.4
20260507040516 52 0.0 1.0 0.00 0.01 0.00 85 1011.4
20260507040016 52 0.0 0.0 0.00 0.01 0.00 85 1011.3
20260507035516 52 0.0 0.0 0.00 0.01 0.00 85 1011.1
20260507035016 52 0.0 1.0 0.00 0.01 0.00 85 1011.0
20260507034516 53 0.0 0.0 0.00 0.01 0.00 85 1011.1
20260507034016 53 0.0 0.0 0.00 0.01 0.00 86 1011.2
20260507033516 53 0.0 0.0 0.00 0.01 0.00 86 1011.2
20260507033016 53 0.0 0.0 0.00 0.01 0.00 86 1011.2
20260507032516 53 0.0 0.0 0.00 0.01 0.00 86 1011.1
20260507032016 53 0.0 0.0 0.00 0.01 0.00 86 1011.2
20260507031516 54 0.0 0.0 0.00 0.01 0.00 86 1011.2
20260507031016 54 0.0 3.0 0.00 0.01 0.00 86 1011.2
20260507030516 54 158 1.0 3.0 0.00 0.01 0.00 86 1011.3
20260507030016 54 0.0 0.0 0.00 0.01 0.00 86 1011.3
20260507025536 55 0.0 0.0 0.00 0.01 0.00 86 1011.3
20260507025016 55 0.0 0.0 0.00 0.01 0.00 87 1011.3
20260507024516 55 0.0 2.0 0.00 0.01 0.00 87 1011.2
20260507024036 55 180 1.0 2.0 0.00 0.01 0.00 87 1011.2